[[{"header":{"parameterUnit":"m.s-1","parameterCategory":1,"la1":30.2991,"la2":30.254,"lo1":-89.0895,"lo2":-89.0444,"dy":0.0017,"dx":0.0017,"nx":28,"ny":28,"refTime":"2024-07-13T03:00:00:Z","depth":0,"parameterNumber":2,"parameterNumberName":"U-component_of_WINDS"},"data":[0,0,0,0,0,0,0,0,0,0,0,0,0,0,0,0,0,0,0,0,0,0,0,0,0,0,0,0,0,0,0,0,0,0,0,0,0,0,0,0,0,0,0,0,0,0,0,0,0,0,0,0,0,0,0,0,0,0,0.4342,0.4344,0,0.4453,0.4454,0.4455,0.4494,0.4493,0.4493,0.4492,0.4607,0.461,0.4613,0,0,0,0,0,0,0,0,0,0,0,0,0,0.4165,0.4168,0.4342,0.4344,0.4345,0.4453,0.4454,0.4456,0.4494,0.4493,0.4493,0.4492,0.4605,0.4609,0.4614,0,0,0,0,0,0,0,0,0,0,0,0,0,0.4255,0.4169,0.4342,0.4377,0.4381,0.4452,0.4454,0.4456,0.4494,0.4493,0.4493,0.4492,0.4604,0.4609,0.4614,0.4659,0,0,0.463,0.4632,0,0,0,0,0,0,0,0,0.425,0.4262,0.4371,0.4375,0.438,0.4459,0.4434,0.4524,0.4494,0.4451,0.4492,0.4492,0.4558,0.4567,0.4589,0.4664,0.4669,0.463,0.4634,0.4636,0.4637,0,0,0,0,0,0,0,0.4244,0.4257,0.4386,0.4372,0.4378,0.4387,0.44,0.4451,0.4507,0.4455,0.4458,0.447,0.456,0.4584,0.4592,0.4671,0.463,0.4635,0.4638,0.464,0.4788,0.4789,0,0,0,0,0,0,0.4232,0.4252,0.4383,0.4389,0.4312,0.4391,0.4405,0.4434,0.4506,0.4517,0.4471,0.4472,0.4576,0.4586,0.4596,0.4653,0.4636,0.4641,0.4644,0.4787,0.4788,0.4789,0,0,0,0,0,0,0.4228,0.4243,0.4378,0.4322,0.4339,0.4395,0.4428,0.4437,0.446,0.4519,0.4529,0.4485,0.4575,0.4589,0.4643,0.4658,0.4643,0.4648,0.4786,0.4788,0.4789,0.4767,0,0,0,0,0,0,0.4222,0.4241,0.4259,0.4322,0.4342,0.4423,0.4429,0.4439,0.4469,0.4471,0.4534,0.4544,0.4576,0.4635,0.4648,0.4664,0.4652,0.4785,0.4787,0.4788,0.4767,0.4767,0.4768,0,0,0,0,0,0.4216,0.4248,0.4259,0.4275,0.4365,0.4423,0.4435,0.4471,0.447,0.4488,0.4525,0.4542,0.4654,0.464,0.4655,0.4673,0.4785,0.4786,0.4788,0.4766,0.4767,0.4768,0,0,0,0,0,0,0.4186,0.4257,0.427,0.4324,0.4367,0.443,0.4454,0.4471,0.4516,0.4516,0.4559,0.4573,0.4624,0.4654,0.4638,0.472,0.472,0.4725,0.4698,0.47,0.47,0.4692,0.4656,0,0,0,0,0,0.4186,0.4227,0.4287,0.4329,0.435,0.4398,0.4425,0.4448,0.4495,0.4514,0.4555,0.46,0.4645,0.4674,0.4719,0.4772,0.4786,0.4791,0.4792,0.4792,0.4796,0.4825,0.4829,0.4795,0.4795,0.4795,0,0,0.4185,0.4229,0.4253,0.4324,0.436,0.4402,0.4413,0.4457,0.4488,0.4521,0.4574,0.4606,0.4659,0.4712,0.4737,0.4739,0.4808,0.4795,0.4794,0.4798,0.4828,0.4831,0.4833,0.4797,0.4797,0.4796,0,0,0.4206,0.4244,0.4282,0.4318,0.4373,0.4405,0.4414,0.4474,0.4496,0.4551,0.4576,0.4614,0.4691,0.4728,0.4756,0.4791,0.4808,0.4804,0.4808,0.4836,0.4838,0.4841,0.4853,0.4856,0.4808,0.4808,0.4808,0,0.4199,0.4262,0.43,0.4342,0.4373,0.4404,0.4443,0.4476,0.4543,0.4564,0.4564,0.4662,0.47,0.4761,0.477,0.4792,0.4804,0.4797,0.4835,0.4838,0.4841,0.4852,0.4857,0.4807,0.4807,0.4807,0.4807,0,0.425,0.4294,0.4319,0.4382,0.4415,0.4456,0.45,0.4529,0.455,0.4582,0.4636,0.4683,0.4738,0.4754,0.4775,0.4819,0.4818,0.4826,0.4827,0.4842,0.4854,0.4859,0.4806,0.4806,0.4806,0.4807,0,0,0.4255,0.4338,0.4347,0.4376,0.4438,0.4473,0.4515,0.4568,0.4592,0.4638,0.4674,0.4738,0.4746,0.4779,0.4804,0.4829,0.4853,0.4834,0.4836,0.4836,0.4904,0.4897,0.4901,0.4865,0.4866,0.4866,0.4899,0,0.4283,0.4359,0.4394,0.4455,0.4496,0.4526,0.4563,0.4605,0.4636,0.4675,0.471,0.4754,0.4761,0.4781,0.4807,0.4844,0.4867,0.4843,0.4899,0.49,0.4884,0.4908,0.4901,0.4929,0.4904,0.4905,0.4905,0,0.4326,0.4371,0.4435,0.4493,0.4512,0.4544,0.4595,0.4633,0.4681,0.4702,0.4738,0.4763,0.4808,0.4806,0.4869,0.4852,0.4877,0.4899,0.4901,0.4907,0.4903,0.4914,0.4939,0.4943,0.4913,0.4912,0.4912,0,0.4322,0.4399,0.4447,0.4471,0.454,0.4562,0.4591,0.464,0.4669,0.4715,0.4734,0.4784,0.4811,0.485,0.4887,0.4882,0.4947,0.4947,0.4965,0.4964,0.4977,0.4975,0.5006,0.4994,0.4994,0.4994,0.4993,0,0.435,0.4388,0.4446,0.4476,0.4519,0.456,0.4602,0.4634,0.4676,0.4713,0.4742,0.4776,0.4824,0.4863,0.4893,0.4941,0.4953,0.4971,0.4978,0.4968,0.4966,0.4985,0.4984,0.4995,0.4994,0.4994,0.4994,0,0.4353,0.4393,0.4448,0.4508,0.4524,0.4554,0.4606,0.4636,0.4668,0.4714,0.4727,0.4778,0.4826,0.4867,0.4931,0.4951,0.5,0.5009,0.4983,0.4987,0.5002,0.5,0.5045,0.5053,0.5036,0.5036,0.5036,0,0.4367,0.4397,0.4461,0.4487,0.4516,0.4559,0.4589,0.463,0.466,0.4718,0.4741,0.4792,0.4834,0.491,0.4952,0.5001,0.5012,0.5024,0.5019,0.5008,0.5011,0.5009,0.5012,0.5024,0.5024,0.5024,0.5024,0,0.4389,0.4407,0.445,0.4499,0.4535,0.4576,0.4617,0.4637,0.4686,0.4719,0.4768,0.4801,0.4866,0.4916,0.4969,0.5,0.502,0.5025,0.5032,0.5022,0.5005,0.5014,0.4983,0.5024,0.5024,0.5024,0.5024,0.5024,0.4398,0.4426,0.4475,0.4521,0.4557,0.4595,0.4626,0.4662,0.4704,0.476,0.4782,0.4832,0.488,0.4954,0.4985,0.5026,0.5029,0.5038,0.5041,0.5042,0.504,0.4999,0.5036,0.5036,0.5036,0.5036,0.5036,0,0.442,0.4453,0.4496,0.4553,0.4589,0.4605,0.4652,0.4682,0.4726,0.4769,0.481,0.4867,0.4915,0.4961,0.5012,0.5035,0.5046,0.5047,0.5046,0.5052,0.5035,0.5024,0.5038,0.5038,0.5038,0.5038,0.5038,0.5038,0.4436,0.4484,0.4509,0.4575,0.4608,0.4657,0.4683,0.4718,0.4753,0.4815,0.4855,0.4885,0.4929,0.4984,0.5029,0.5041,0.5058,0.5057,0.5072,0.5055,0.5054,0.5053,0.5043,0.506,0.5061,0.5086,0.5086,0.5086]},{"header":{"parameterUnit":"m.s-1","parameterCategory":1,"la1":30.2991,"la2":30.254,"lo1":-89.0895,"lo2":-89.0444,"dy":0.0017,"dx":0.0017,"nx":28,"ny":28,"refTime":"2024-07-13T03:00:00:Z","depth":0,"parameterNumber":3,"parameterNumberName":"V-component_of_WINDS"},"data":[0,0,0,0,0,0,0,0,0,0,0,0,0,0,0,0,0,0,0,0,0,0,0,0,0,0,0,0,0,0,0,0,0,0,0,0,0,0,0,0,0,0,0,0,0,0,0,0,0,0,0,0,0,0,0,0,0,0,2.756,2.7559,0,2.7536,2.7536,2.7535,2.7503,2.7502,2.7502,2.7501,2.7476,2.7476,2.7476,0,0,0,0,0,0,0,0,0,0,0,0,0,2.7577,2.7577,2.756,2.7559,2.7559,2.7536,2.7536,2.7535,2.7503,2.7502,2.7502,2.7501,2.7476,2.7476,2.7476,0,0,0,0,0,0,0,0,0,0,0,0,0,2.7563,2.7577,2.756,2.754,2.7538,2.7536,2.7536,2.7535,2.7503,2.7502,2.7501,2.7501,2.7476,2.7476,2.7476,2.7491,0,0,2.7475,2.7475,0,0,0,0,0,0,0,0,2.7564,2.7562,2.7543,2.7542,2.7539,2.7521,2.7532,2.752,2.7503,2.7516,2.7501,2.75,2.7492,2.749,2.7488,2.749,2.7489,2.7475,2.7475,2.7475,2.7475,0,0,0,0,0,0,0,2.7565,2.7563,2.755,2.7543,2.7541,2.7533,2.753,2.753,2.7509,2.7515,2.7513,2.751,2.7491,2.7488,2.7487,2.7488,2.7475,2.7475,2.7475,2.7475,2.75,2.7501,0,0,0,0,0,0,2.7569,2.7564,2.7551,2.755,2.755,2.7533,2.753,2.7528,2.7509,2.7505,2.7511,2.7509,2.7489,2.7487,2.7486,2.7501,2.7475,2.7475,2.7475,2.75,2.7501,2.7502,0,0,0,0,0,0,2.7569,2.7568,2.7552,2.7556,2.7554,2.7533,2.7532,2.7528,2.7525,2.7506,2.7502,2.7512,2.7488,2.7486,2.749,2.75,2.7475,2.7475,2.7499,2.75,2.7501,2.7532,0,0,0,0,0,0,2.757,2.7568,2.7574,2.7557,2.7553,2.7556,2.7533,2.7528,2.7525,2.7522,2.7506,2.7502,2.7487,2.749,2.749,2.7499,2.7474,2.7498,2.7499,2.7501,2.753,2.7535,2.7538,0,0,0,0,0,2.7571,2.7584,2.7574,2.7573,2.756,2.7557,2.7555,2.7538,2.7526,2.7531,2.7519,2.7503,2.7499,2.7491,2.749,2.7499,2.7497,2.7499,2.7501,2.7529,2.7534,2.7538,0,0,0,0,0,0,2.7602,2.7581,2.757,2.7578,2.757,2.7552,2.7557,2.7544,2.7538,2.7536,2.7514,2.7511,2.7517,2.7509,2.75,2.7512,2.7496,2.7497,2.7517,2.7522,2.7526,2.7527,2.7474,0,0,0,0,0,2.761,2.761,2.7591,2.76,2.7596,2.7578,2.7576,2.7563,2.7553,2.755,2.7537,2.7528,2.7525,2.7523,2.7519,2.753,2.7525,2.7536,2.754,2.7543,2.7544,2.7548,2.7552,2.7508,2.7508,2.7508,0,0,2.7626,2.7615,2.7616,2.7606,2.7598,2.7597,2.7575,2.7576,2.7575,2.755,2.7552,2.7543,2.7531,2.7538,2.754,2.7531,2.7556,2.7545,2.7548,2.7547,2.755,2.7555,2.7558,2.7509,2.7509,2.7508,0,0,2.7655,2.7647,2.7653,2.7645,2.7633,2.7621,2.7623,2.7607,2.76,2.7602,2.7583,2.7582,2.7577,2.7569,2.7565,2.7591,2.7576,2.7591,2.7611,2.7615,2.7618,2.7621,2.763,2.7633,2.7592,2.7593,2.7593,0,2.7677,2.7675,2.7657,2.7659,2.7655,2.7633,2.7638,2.7632,2.762,2.7617,2.7608,2.76,2.7591,2.7595,2.7602,2.76,2.76,2.7592,2.7619,2.7622,2.7624,2.7632,2.7636,2.7594,2.7594,2.7594,2.7594,0,2.7702,2.7702,2.7708,2.7696,2.7693,2.7697,2.7679,2.7678,2.7666,2.7655,2.7657,2.7646,2.7638,2.7639,2.7627,2.7641,2.7636,2.7623,2.7605,2.7631,2.7638,2.7641,2.7597,2.7596,2.7596,2.7595,0,0,2.7749,2.7728,2.773,2.7724,2.771,2.7709,2.7712,2.7705,2.7704,2.7697,2.7698,2.7695,2.7683,2.7678,2.7665,2.7669,2.7689,2.7655,2.7655,2.7661,2.7703,2.7712,2.7716,2.768,2.7681,2.7681,2.7704,0,2.7774,2.7777,2.7761,2.7769,2.7768,2.7747,2.7749,2.774,2.773,2.7728,2.7717,2.7714,2.7699,2.7696,2.7699,2.7686,2.7697,2.7685,2.768,2.768,2.7682,2.7719,2.7729,2.775,2.7706,2.7707,2.7707,0,2.7803,2.7797,2.7805,2.779,2.7789,2.7791,2.7783,2.7782,2.7771,2.7764,2.7758,2.7744,2.7745,2.773,2.7731,2.7722,2.772,2.7713,2.7714,2.7712,2.7694,2.7717,2.7757,2.776,2.7711,2.7711,2.7711,0,2.7835,2.7829,2.7833,2.7829,2.7812,2.7814,2.7807,2.7796,2.7792,2.7786,2.7784,2.7778,2.7774,2.7769,2.7753,2.7743,2.7756,2.7739,2.7749,2.7749,2.7751,2.7751,2.779,2.7752,2.7752,2.7752,2.7751,0,2.7864,2.7869,2.7847,2.7849,2.7853,2.7836,2.7841,2.7832,2.7822,2.7822,2.7804,2.7804,2.7783,2.7781,2.7769,2.7771,2.777,2.7763,2.7759,2.7764,2.7764,2.776,2.7758,2.7752,2.7752,2.7752,2.7752,0,2.79,2.7885,2.7887,2.7871,2.7867,2.7872,2.7858,2.7859,2.7848,2.7847,2.7846,2.7829,2.7825,2.7809,2.7802,2.7793,2.7799,2.7793,2.7802,2.78,2.781,2.7809,2.7847,2.7851,2.7811,2.7812,2.7812,0,2.7918,2.7922,2.7906,2.7905,2.7899,2.7897,2.7893,2.7876,2.7873,2.7862,2.7864,2.7859,2.7854,2.7849,2.7835,2.7829,2.7822,2.7836,2.7821,2.7825,2.7821,2.782,2.782,2.7839,2.7839,2.784,2.784,0,2.7953,2.7945,2.7941,2.7935,2.7932,2.7926,2.7919,2.7919,2.79,2.7898,2.7894,2.789,2.7882,2.7877,2.7869,2.7861,2.7847,2.7845,2.7847,2.7851,2.7855,2.7852,2.781,2.7844,2.7844,2.7843,2.7843,2.7843,2.7979,2.7981,2.797,2.7967,2.796,2.7954,2.7954,2.7943,2.794,2.7932,2.7922,2.792,2.7909,2.7897,2.789,2.7887,2.788,2.7882,2.7883,2.7883,2.7885,2.7857,2.7886,2.7886,2.7886,2.7886,2.7886,0,2.8011,2.8004,2.8001,2.7992,2.7989,2.7977,2.7969,2.7967,2.7965,2.7956,2.7952,2.7947,2.7942,2.7928,2.7922,2.7922,2.7916,2.7921,2.792,2.7918,2.7893,2.7892,2.7926,2.7926,2.7926,2.7926,2.7926,2.7926,2.8028,2.803,2.8021,2.802,2.8012,2.8009,2.8006,2.8,2.7993,2.7989,2.7985,2.7976,2.7965,2.7958,2.7953,2.7949,2.7947,2.7954,2.7948,2.7924,2.792,2.7916,2.7915,2.7954,2.7954,2.7973,2.7973,2.7974]}]]